Regional Weather Roundup
Issued by NWS

Home | Current Version | Previous Version | Text Only | Print | Product List | Glossary On
Versions: 1 2 3 4 5 6 7 8 9 10 11 12 13 14 15 16 17 18 19 20 21 22 23 24 25 26 27
000
ASUS46 KPQR 261710
RWROR

OREGON REGIONAL WEATHER ROUNDUP
NATIONAL WEATHER SERVICE PORTLAND OR
1000 AM PDT FRI AUG 26 2016

NOTE: "FAIR" INDICATES FEW OR NO CLOUDS BELOW 12,000 FEET WITH
NO SIGNIFICANT WEATHER AND/OR OBSTRUCTIONS TO VISIBILITY.

ORZ001>013-261800-
NORTHWEST OREGON


CITY           SKY/WX    TMP DP  RH WIND       PRES   REMARKS
ASTORIA        MOSUNNY   75  59  57 CALM      29.90F
NEWPORT          N/A     63  52  67 SW5       29.92R HAZE
PORTLAND       PTSUNNY   73  52  47 W3        29.92F
VANCOUVER WA   SUNNY     72  54  53 W6        29.92F
SCAPPOOSE      SUNNY     76  52  43 VRB3      29.91F
HILLSBORO      SUNNY     78  51  38 CALM      29.91F
AURORA         SUNNY     79  48  33 N10       29.91F
MCMINNVILLE    SUNNY     82  50  32 N6        29.91F
SALEM          SUNNY     77  47  34 N10       29.90S
CORVALLIS        N/A     79  50  36 CALM      29.92S
EUGENE         MOSUNNY   76  45  33 NE9       29.91S
$$

ORZ021-028-261800-
SOUTHWEST OREGON


CITY           SKY/WX    TMP DP  RH WIND       PRES   REMARKS
NORTH BEND     SUNNY     55  50  82 NW5       29.92S
BROOKINGS      LGT RAIN  51  51 100 SE3       29.94R VSB 1/4
ROSEBURG       SUNNY     73  44  35 CALM      29.90F
SEXTON SUMMIT  SUNNY     75  35  23 VRB3      30.02S
MEDFORD        SUNNY     72  41  32 VRB3      29.93S
$$

ORZ014>016-041-261800-
COLUMBIA GORGE


CITY           SKY/WX    TMP DP  RH WIND       PRES   REMARKS
TROUTDALE      SUNNY     75  50  41 SE3       29.92S
THE DALLES     SUNNY     73  44  35 NW3       29.95F
$$

ORZ029>031-041-044-049-050-061>064-502-503-505>511-261800-
EASTERN OREGON


CITY           SKY/WX    TMP DP  RH WIND       PRES   REMARKS
REDMOND        SUNNY     70  27  20 CALM      30.06F
BEND             N/A    N/A N/A N/A MISG        N/A
PRINEVILLE     SUNNY     68  34  28 CALM      30.07S
KLAMATH FALLS  SUNNY     70  36  28 VRB3      30.07S
LAKEVIEW       SUNNY     68  32  26 SE3       30.11S
HERMISTON      SUNNY     74  39  28 NW3       29.96S
PENDLETON      SUNNY     75  35  23 S5        29.98S
JOHN DAY       SUNNY     67  33  27 CALM      30.08S
MEACHAM        SUNNY     74  25  16 VRB5      30.06F
LA GRANDE      SUNNY     68  34  28 CALM      30.04F
BAKER CITY     SUNNY     69  36  29 W6        30.06S
BURNS          SUNNY     66  29  24 SE3       30.09S
ROME             N/A     71  28  20 VRB3      30.05S
ONTARIO        SUNNY     75  36  24 SE3       29.99S
$$




USA.gov is the U.S. government's official web portal to all federal, state and local government web resources and services.